| time (UTC) | temp C | wind direction | speed KPH | gust KPH | rain 1hr cm | rain 24hr cm | rain mn cm | humidity % | barometer mb |
| 20260508120026 | 3 | 282 | 0.0 | 0.0 | 0.00 | 0.00 | 0.00 | 37 | 1012.6 |
| 20260508114522 | 3 | 282 | 0.0 | 0.0 | 0.00 | 0.00 | 0.00 | 37 | 1012.8 |
| 20260508113018 | 2 | 282 | 0.0 | 0.0 | 0.00 | 0.00 | 0.00 | 37 | 1012.9 |
| 20260508111613 | 2 | 279 | 3.2 | 0.0 | 0.00 | 0.00 | 0.00 | 37 | 1012.9 |
| 20260508110016 | 2 | 279 | 0.0 | 0.0 | 0.00 | 0.00 | 0.00 | 36 | 1012.8 |
| 20260508104507 | 2 | 279 | 3.2 | 0.0 | 0.00 | 0.00 | 0.00 | 35 | 1012.7 |
| 20260508103000 | 2 | 285 | 1.6 | 0.0 | 0.00 | 0.00 | 0.00 | 34 | 1012.5 |
| 20260508101559 | 2 | 287 | 0.0 | 0.0 | 0.00 | 0.00 | 0.00 | 32 | 1012.4 |
| 20260508100055 | 2 | 287 | 0.0 | 0.0 | 0.00 | 0.00 | 0.00 | 32 | 1012.1 |
| 20260508094609 | 2 | 304 | 0.0 | 0.0 | 0.00 | 0.00 | 0.00 | 35 | 1012.0 |
| 20260508093047 | 2 | 304 | 0.0 | 0.0 | 0.00 | 0.00 | 0.00 | 33 | 1011.9 |
| 20260508091543 | 1 | 304 | 0.0 | 0.0 | 0.00 | 0.00 | 0.00 | 28 | 1011.8 |
| 20260508090043 | 1 | 304 | 0.0 | 0.0 | 0.00 | 0.00 | 0.00 | 27 | 1011.8 |
| 20260508084535 | 1 | 304 | 0.0 | 0.0 | 0.00 | 0.00 | 0.00 | 24 | 1011.5 |
| 20260508083030 | 1 | 304 | 0.0 | 0.0 | 0.00 | 0.00 | 0.00 | 20 | 1011.4 |
| 20260508081553 | 1 | 304 | 0.0 | 0.0 | 0.00 | 0.00 | 0.00 | 11 | 1011.4 |
| 20260508080022 | 0 | 304 | 0.0 | 0.0 | 0.00 | 0.00 | 0.00 | 8 | 1011.4 |
| 20260508074518 | 0 | 304 | 0.0 | 0.0 | 0.00 | 0.00 | 0.00 | 5 | 1011.3 |
| 20260508073015 | 0 | 305 | 0.0 | 0.0 | 0.00 | 0.00 | 0.00 | 8 | 1011.5 |
| 20260508071525 | 0 | 305 | 0.0 | 0.0 | 0.00 | 0.00 | 0.00 | 13 | 1011.3 |
| 20260508070007 | 0 | 305 | 0.0 | 0.0 | 0.00 | 0.00 | 0.00 | 16 | 1011.4 |
| 20260508064508 | 0 | 305 | 0.0 | 0.0 | 0.00 | 0.00 | 0.00 | 17 | 1011.1 |
| 20260508063117 | 0 | 305 | 0.0 | 0.0 | 0.00 | 0.00 | 0.00 | 19 | 1011.2 |
| 20260508061557 | 0 | 305 | 0.0 | 0.0 | 0.00 | 0.00 | 0.00 | 20 | 1011.1 |
| 20260508060056 | 0 | 305 | 0.0 | 0.0 | 0.00 | 0.00 | 0.00 | 21 | 1011.1 |
| 20260508054549 | 0 | 305 | 0.0 | 0.0 | 0.00 | 0.00 | 0.00 | 22 | 1011.3 |
| 20260508053043 | 0 | 305 | 0.0 | 0.0 | 0.00 | 0.00 | 0.00 | 23 | 1011.2 |
| 20260508051541 | 0 | 305 | 0.0 | 0.0 | 0.00 | 0.00 | 0.00 | 26 | 1011.2 |
| 20260508050037 | 0 | 305 | 0.0 | 0.0 | 0.00 | 0.00 | 0.00 | 32 | 1011.4 |
| 20260508044536 | 0 | 305 | 0.0 | 0.0 | 0.00 | 0.00 | 0.00 | 36 | 1011.5 |
| 20260508043033 | 0 | 305 | 0.0 | 0.0 | 0.00 | 0.00 | 0.00 | 39 | 1011.3 |
| 20260508041531 | 0 | 305 | 0.0 | 0.0 | 0.00 | 0.00 | 0.00 | 43 | 1011.1 |
| 20260508040028 | 0 | 305 | 0.0 | 0.0 | 0.00 | 0.00 | 0.00 | 48 | 1011.1 |
| 20260508034524 | 0 | 305 | 0.0 | 0.0 | 0.00 | 0.00 | 0.05 | 51 | 1011.1 |
| 20260508033022 | 0 | 305 | 0.0 | 0.0 | 0.00 | 0.00 | 0.05 | 54 | 1011.3 |
| 20260508031516 | 1 | 305 | 0.0 | 0.0 | 0.00 | 0.00 | 0.05 | 56 | 1011.2 |
| 20260508030015 | 1 | 305 | 0.0 | 0.0 | 0.00 | 0.00 | 0.05 | 58 | 1011.1 |
| 20260508024517 | 1 | 305 | 0.0 | 0.0 | 0.00 | 0.00 | 0.05 | 59 | 1011.0 |
| 20260508023008 | 2 | 305 | 0.0 | 0.0 | 0.00 | 0.00 | 0.05 | 62 | 1011.1 |
| 20260508021501 | 2 | 305 | 0.0 | 0.0 | 0.00 | 0.00 | 0.05 | 64 | 1011.0 |
| 20260508020105 | 2 | 305 | 0.0 | 0.0 | 0.00 | 0.00 | 0.05 | 65 | 1011.0 |
| 20260508014556 | 3 | 305 | 0.0 | 0.0 | 0.00 | 0.00 | 0.05 | 65 | 1010.8 |
| 20260508013050 | 3 | 305 | 0.0 | 0.0 | 0.00 | 0.00 | 0.05 | 64 | 1010.7 |
| 20260508011545 | 4 | 305 | 0.0 | 0.0 | 0.00 | 0.00 | 0.05 | 64 | 1010.7 |
| 20260508010044 | 5 | 305 | 0.0 | 0.0 | 0.00 | 0.00 | 0.05 | 62 | 1010.6 |
| 20260508004539 | 6 | 305 | 0.0 | 0.0 | 0.00 | 0.00 | 0.05 | 59 | 1010.5 |
| 20260508003034 | 6 | 305 | 0.0 | 0.0 | 0.00 | 0.00 | 0.05 | 56 | 1010.1 |
| 20260508001535 | 7 | 305 | 0.0 | 0.0 | 0.00 | 0.00 | 0.05 | 52 | 1009.8 |
| 20260508000033 | 7 | 305 | 0.0 | 0.0 | 0.00 | 0.00 | 0.05 | 50 | 1009.8 |
| 20260507234533 | 8 | 304 | 0.0 | 0.0 | 0.00 | 0.00 | 0.05 | 48 | 1009.8 |
| 20260507233041 | 8 | 304 | 0.0 | 0.0 | 0.00 | 0.00 | 0.05 | 47 | 1009.5 |
| 20260507231536 | 8 | 315 | 3.2 | 0.0 | 0.00 | 0.00 | 0.05 | 46 | 1009.7 |
| 20260507230034 | 9 | 315 | 3.2 | 0.0 | 0.00 | 0.00 | 0.05 | 46 | 1009.7 |
| 20260507224540 | 8 | 303 | 4.8 | 0.0 | 0.00 | 0.00 | 0.05 | 46 | 1009.6 |
| 20260507223033 | 9 | 307 | 8.0 | 0.0 | 0.00 | 0.00 | 0.05 | 45 | 1009.5 |
| 20260507221535 | 9 | 298 | 4.8 | 0.0 | 0.00 | 0.00 | 0.05 | 44 | 1009.4 |
| 20260507220027 | 9 | 300 | 4.8 | 0.0 | 0.00 | 0.00 | 0.05 | 46 | 1009.6 |
| 20260507214524 | 9 | 321 | 3.2 | 0.0 | 0.00 | 0.00 | 0.05 | 45 | 1009.7 |
| 20260507213018 | 9 | 271 | 3.2 | 0.0 | 0.00 | 0.00 | 0.05 | 45 | 1009.7 |
| 20260507211521 | 10 | 310 | 3.2 | 0.0 | 0.00 | 0.00 | 0.05 | 44 | 1009.5 |
| 20260507210008 | 9 | 265 | 3.2 | 0.0 | 0.00 | 0.00 | 0.05 | 45 | 1009.4 |
| 20260507204505 | 9 | 281 | 4.8 | 0.0 | 0.00 | 0.00 | 0.05 | 44 | 1009.5 |
| 20260507203111 | 9 | 277 | 3.2 | 0.0 | 0.00 | 0.00 | 0.05 | 46 | 1009.6 |
| 20260507201600 | 10 | 270 | 8.0 | 0.0 | 0.00 | 0.00 | 0.05 | 44 | 1009.6 |
| 20260507200107 | 10 | 273 | 6.4 | 0.0 | 0.00 | 0.00 | 0.05 | 44 | 1009.4 |
| 20260507194549 | 10 | 225 | 8.0 | 0.0 | 0.00 | 0.00 | 0.05 | 47 | 1009.7 |
| 20260507193048 | 10 | 267 | 8.0 | 0.0 | 0.00 | 0.00 | 0.05 | 48 | 1009.9 |
| 20260507191540 | 8 | 334 | 4.8 | 0.0 | 0.00 | 0.00 | 0.05 | 52 | 1010.0 |
| 20260507190037 | 9 | 305 | 3.2 | 0.0 | 0.00 | 0.00 | 0.05 | 50 | 1010.1 |
| 20260507184532 | 8 | 280 | 3.2 | 0.0 | 0.00 | 0.00 | 0.05 | 53 | 1010.2 |
| 20260507183028 | 8 | 294 | 6.4 | 0.0 | 0.00 | 0.00 | 0.05 | 51 | 1010.3 |
| 20260507181529 | 8 | 263 | 4.8 | 0.0 | 0.00 | 0.00 | 0.05 | 50 | 1010.4 |
| 20260507180026 | 8 | 252 | 8.0 | 0.0 | 0.00 | 0.00 | 0.05 | 53 | 1010.4 |
| 20260507174523 | 8 | 290 | 4.8 | 0.0 | 0.00 | 0.00 | 0.05 | 51 | 1010.6 |
| 20260507173030 | 8 | 292 | 6.4 | 0.0 | 0.00 | 0.00 | 0.05 | 50 | 1010.4 |
| 20260507171517 | 8 | 313 | 4.8 | 0.0 | 0.00 | 0.00 | 0.05 | 51 | 1010.7 |
| 20260507170016 | 8 | 284 | 6.4 | 0.0 | 0.00 | 0.00 | 0.05 | 50 | 1010.7 |
| 20260507164510 | 8 | 290 | 6.4 | 0.0 | 0.00 | 0.00 | 0.05 | 50 | 1010.7 |
| 20260507163010 | 8 | 257 | 4.8 | 0.0 | 0.00 | 0.00 | 0.05 | 50 | 1010.9 |
| 20260507161503 | 8 | 287 | 6.4 | 0.0 | 0.00 | 0.00 | 0.05 | 51 | 1011.0 |
| 20260507160100 | 8 | 234 | 6.4 | 0.0 | 0.00 | 0.00 | 0.05 | 52 | 1011.0 |
| 20260507154559 | 8 | 24 | 4.8 | 0.0 | 0.00 | 0.00 | 0.05 | 52 | 1011.1 |
| 20260507153051 | 7 | 234 | 6.4 | 0.0 | 0.00 | 0.00 | 0.05 | 54 | 1011.7 |
| 20260507151547 | 7 | 286 | 6.4 | 0.0 | 0.00 | 0.00 | 0.05 | 55 | 1011.6 |
| 20260507150044 | 7 | 290 | 4.8 | 0.0 | 0.00 | 0.00 | 0.05 | 54 | 1011.5 |
| 20260507144539 | 7 | 323 | 11.3 | 0.0 | 0.00 | 0.00 | 0.05 | 54 | 1011.6 |
| 20260507143037 | 6 | 304 | 9.7 | 0.0 | 0.00 | 0.00 | 0.03 | 56 | 1011.8 |
| 20260507141530 | 6 | 236 | 9.7 | 0.0 | 0.00 | 0.00 | 0.03 | 57 | 1011.5 |
| 20260507140032 | 6 | 284 | 8.0 | 0.0 | 0.00 | 0.00 | 0.03 | 57 | 1011.5 |
| 20260507134528 | 6 | 309 | 6.4 | 0.0 | 0.00 | 0.00 | 0.03 | 57 | 1011.7 |
| 20260507133025 | 5 | 274 | 6.4 | 0.0 | 0.00 | 0.00 | 0.03 | 58 | 1011.5 |
| 20260507131523 | 5 | 287 | 6.4 | 0.0 | 0.00 | 0.00 | 0.03 | 59 | 1011.5 |
| 20260507130014 | 5 | 285 | 6.4 | 0.0 | 0.00 | 0.00 | 0.03 | 59 | 1011.7 |
| 20260507124511 | 4 | 269 | 6.4 | 0.0 | 0.00 | 0.00 | 0.03 | 59 | 1011.5 |
| 20260507123008 | 4 | 280 | 1.6 | 0.0 | 0.00 | 0.00 | 0.03 | 59 | 1011.5 |
| 20260507121501 | 3 | 244 | 4.8 | 0.0 | 0.00 | 0.00 | 0.03 | 59 | 1011.6 |